Flag for Russia Weather past 2 weeks in Bryansk, Russia

Now
59 °F

Sprinkles. Fog.


Feels Like: 59 °F
Forecast: 51 / 67 °F
Wind: No wind

Location: Brjansk

Current Time: Sep 2, 2014 at 7:04:28 AM

Latest Report: Sep 2, 2014 at 6:00 AM


Visibility: 3 mi

Pressure: 30.04 "Hg

Humidity: 100%

Dew point: 59 °F

Location of BryanskLocation

Historic Weather in Bryansk — Graph

°F

Bryansk temperature yesterday

Maximum temperature yesterday: 66 °F (at 3:00 PM)
Minimum temperature yesterday: 55 °F (at 9:00 AM)
Average temperature yesterday: 61 °F

Past Weeks' High & Low Weather Summary

 TemperatureHumidityPressure
High86 °F (Aug 21, 5:00 PM)100% (Aug 22, 8:00 AM)30.09 "Hg (Aug 22, 8:00 AM)
Low45 °F (Aug 23, 7:00 AM)30% (Aug 19, 4:00 PM)29.65 "Hg (Aug 27, 11:00 AM)
Average63 °F70%29.92 "Hg
* Reported Aug 18 8:00 AM — Sep 2 5:00 AM, Bryansk, Weather by CustomWeather, © 2014

Note: Actual official high and low records may vary slightly from our data, if they occured in-between our weather recording intervals... More about our weather records

Advertising

Bryansk weather history for previous 24 hours

 ConditionsComfort  
Time TempWeatherWind HumidityBarometerVisibility
5:00 AM
Sep 2
59 °FSprinkles. Fog.3 mph100%30.04 "Hg3 mi
12:00 AM61 °FOvercast.3 mph94%30.01 "Hg6 mi
11:00 PM
Sep 1
61 °FOvercast.1 mph100%30.04 "Hg6 mi
10:00 PM61 °FOvercast.3 mph100%30.04 "Hg6 mi
9:00 PM61 °FMostly cloudy.3 mph94%30.04 "Hg6 mi
8:00 PM61 °FMostly cloudy.3 mph100%30.04 "Hg6 mi
7:00 PM63 °FThunderstorms. Mostly cloudy.No wind94%30.07 "Hg6 mi
6:00 PM64 °FMore clouds than sun.3 mph83%30.04 "HgN/A
5:00 PM64 °FPartly sunny.6 mph88%30.04 "HgN/A
4:00 PM63 °FSprinkles. Mostly cloudy.3 mph88%30.07 "Hg6 mi
3:00 PM66 °FPartly sunny.3 mph78%30.07 "HgN/A
2:00 PM61 °FMostly cloudy.3 mph88%30.07 "HgN/A
1:00 PM63 °FBroken clouds.3 mph77%30.07 "HgN/A
12:00 PM61 °FBroken clouds.3 mph88%30.07 "HgN/A
11:00 AM57 °FMostly cloudy.6 mph88%30.07 "Hg6 mi
10:00 AM55 °FPartly sunny.3 mph94%30.04 "HgN/A
9:00 AM55 °FPartly sunny.6 mph94%30.04 "HgN/A
Weather by CustomWeather, © 2014

See weather overviewHow to use our weather pages